TimeMDT,TemperatureF,Dew PointF,Humidity,Sea Level PressureIn,VisibilityMPH,Wind Direction,Wind SpeedMPH,Gust SpeedMPH,PrecipitationIn,Events,Conditions,WindDirDegrees,DateUTC
12:53 AM,21.9,15.1,75,30.45,10.0,SW,4.6,-,N/A,,Partly Cloudy,220,2013-04-10 06:53:00
1:53 AM,19.9,14.0,78,30.42,10.0,WSW,3.5,-,N/A,,Clear,240,2013-04-10 07:53:00
2:53 AM,19.9,14.0,78,30.40,10.0,Calm,Calm,-,N/A,,Clear,0,2013-04-10 08:53:00
3:53 AM,19.9,16.0,85,30.39,10.0,SSE,3.5,-,N/A,,Clear,150,2013-04-10 09:53:00
4:53 AM,19.9,15.1,81,30.38,10.0,SSE,5.8,-,N/A,,Clear,150,2013-04-10 10:53:00
5:53 AM,17.1,12.9,84,30.38,10.0,SSE,5.8,-,N/A,,Clear,150,2013-04-10 11:53:00
6:53 AM,17.1,14.0,88,30.36,10.0,SSE,4.6,-,N/A,,Clear,160,2013-04-10 12:53:00
7:53 AM,19.9,16.0,85,30.36,10.0,SSE,8.1,-,N/A,,Clear,150,2013-04-10 13:53:00
8:53 AM,23.0,17.1,78,30.35,10.0,SSE,4.6,-,N/A,,Clear,160,2013-04-10 14:53:00
9:53 AM,27.0,19.0,72,30.34,10.0,South,5.8,-,N/A,,Clear,190,2013-04-10 15:53:00
11:53 AM,32.0,21.0,64,30.28,10.0,SE,11.5,-,N/A,,Clear,140,2013-04-10 17:53:00
12:53 PM,34.0,23.0,64,30.24,10.0,SSE,11.5,-,N/A,,Clear,160,2013-04-10 18:53:00
1:53 PM,37.9,23.0,55,30.18,10.0,SSE,9.2,18.4,N/A,,Clear,160,2013-04-10 19:53:00
2:53 PM,39.9,24.1,53,30.14,10.0,SSE,9.2,16.1,N/A,,Clear,150,2013-04-10 20:53:00
3:53 PM,42.1,24.1,49,30.09,10.0,SE,11.5,-,N/A,,Clear,130,2013-04-10 21:53:00
4:53 PM,45.0,23.0,42,30.05,10.0,SE,11.5,-,N/A,,Clear,140,2013-04-10 22:53:00
5:53 PM,44.1,21.0,40,30.04,10.0,SSE,10.4,-,N/A,,Clear,150,2013-04-10 23:53:00
6:53 PM,43.0,19.9,40,30.02,10.0,SSE,13.8,-,N/A,,Clear,150,2013-04-11 00:53:00
7:53 PM,39.0,19.9,46,30.00,10.0,SE,11.5,-,N/A,,Clear,140,2013-04-11 01:53:00
8:53 PM,37.0,19.9,50,29.99,10.0,SSE,10.4,-,N/A,,Clear,150,2013-04-11 02:53:00
9:53 PM,34.0,21.0,59,29.97,10.0,SSE,9.2,-,N/A,,Partly Cloudy,150,2013-04-11 03:53:00
10:53 PM,34.0,21.0,59,29.94,10.0,SE,12.7,-,N/A,,Overcast,140,2013-04-11 04:53:00
11:53 PM,33.1,21.0,61,29.93,10.0,SSE,10.4,-,N/A,,Clear,150,2013-04-11 05:53:00